Location: Unspecified
(0.0000°N, 0.0000°E)
Time: 10:51:59
(UTC+00:00)

SICH 2 - Pass Details

Date: 08 June 2023
Orbit: 674 x 694 km, 97.8° (Epoch: 22 September)

Event Time Altitude Azimuth Distance (km) Brightness Sun altitude
Exits shadow 19:13:54 - 180° (S) 2,949 ? -17.2°
Reaches altitude 10° 19:15:58 10° 185° (S) 2,129 ? -17.7°
Maximum altitude 19:20:25 46° 258° (WSW) 912 ? -18.7°
Drops below altitude 10° 19:24:50 10° 331° (NNW) 2,107 ? -19.7°
Sets 19:27:08 0° 338° (NNW) 3,016 ? -20.2°
